Pierce City, MO

2:57 PM CST on February 13, 2016 (GMT -0600)
Monett

Weather History for KHFJ - March, 2014

Change the Weather History Date:

Monday, March 24, 2014

  Actual Average (KJLN) Record (KJLN)
Temperature  
Mean Temperature 39 °F 51 °F  
Max Temperature 48 °F 63 °F 82 °F (2003)
Min Temperature 30 °F 40 °F 11 °F (1974)
Degree Days  
Heating Degree Days 26 14  
Month to date heating degree days 417  
Since 1 July heating degree days 3671  
Cooling Degree Days 0 0  
Month to date cooling degree days 0  
Year to date cooling degree days 1  
Moisture  
Dew Point 25 °F    
Average Humidity 65    
Maximum Humidity 100    
Minimum Humidity 40    
Precipitation  
Precipitation 0.00 in 0.11 in 1.40 in (1973)
Month to date precipitation 2.56  
Year to date precipitation 6.91  
Sea Level Pressure  
Sea Level Pressure 30.19 in    
Wind  
Wind Speed 9 mph (ENE)    
Max Wind Speed 14 mph    
Max Gust Speed 20 mph    
Visibility 10 miles    
Events Rain    
T = Trace of Precipitation, MM = Missing Value Source: NWS Daily Summary

Daily Weather History Graph

Daily Weather History Graph

Search for Another Location

Airport or City:

Trip Planner

Search our weather history database for the weather conditions in past years. The results will help you decide how hot, cold, wet, or windy it might be!

Date:

Astronomy

Mar. 24, 2014 Rise Set
Actual Time 7:13 AM CDT 7:31 PM CDT
Civil Twilight 6:47 AM CDT 7:57 PM CDT
Nautical Twilight 6:17 AM CDT 8:27 PM CDT
Astronomical Twilight 5:46 AM CDT 8:58 PM CDT
Moon 2:36 AM CDT (3/24) 1:05 PM CDT (3/24)
Length of Visible Light 13h 09m
Length of Day
12h 17m
Last Quarter, 43% of the Moon is Illuminated
Mar 24
Last Quarter
Mar 30
New
Apr 7
First Quarter
Apr 15
Full
Apr 22
Last Quarter

Hourly Weather History & Observations

Time (CDT) Temp. Windchill Dew Point Humidity Pressure Visibility Wind Dir Wind Speed Gust Speed Precip Events Conditions
12:15 AM 32.0 °F 25.6 °F 17.6 °F 55% 30.26 in 10.0 mi ENE 6.9 mph - N/A   Clear
12:35 AM 32.0 °F 25.6 °F 15.8 °F 51% 30.26 in 10.0 mi ENE 6.9 mph - N/A   Clear
12:55 AM 32.0 °F 25.6 °F 17.6 °F 55% 30.26 in 10.0 mi ENE 6.9 mph - N/A   Clear
1:15 AM 32.0 °F 26.4 °F 15.8 °F 51% 30.26 in 10.0 mi East 5.8 mph - N/A   Clear
1:35 AM 32.0 °F 25.6 °F 14.0 °F 48% 30.25 in 10.0 mi East 6.9 mph - N/A   Clear
1:55 AM 32.0 °F 24.8 °F 15.8 °F 51% 30.25 in 10.0 mi ESE 8.1 mph - N/A   Clear
2:15 AM 30.2 °F 24.3 °F 17.6 °F 60% 30.25 in 10.0 mi East 5.8 mph - N/A   Clear
2:35 AM 30.2 °F 24.3 °F 15.8 °F 55% 30.25 in 10.0 mi East 5.8 mph - N/A   Clear
2:55 AM 30.2 °F 22.6 °F 17.6 °F 60% 30.23 in 10.0 mi ESE 8.1 mph - N/A   Clear
3:15 AM 30.2 °F 21.9 °F 17.6 °F 60% 30.22 in 10.0 mi ESE 9.2 mph - N/A   Clear
3:35 AM 30.2 °F 21.9 °F 17.6 °F 60% 30.21 in 10.0 mi ESE 9.2 mph - N/A   Clear
3:55 AM 30.2 °F 21.9 °F 17.6 °F 60% 30.21 in 10.0 mi ESE 9.2 mph - N/A   Clear
4:15 AM 30.2 °F 22.6 °F 17.6 °F 60% 30.21 in 10.0 mi ESE 8.1 mph - N/A   Clear
4:35 AM 30.2 °F 24.3 °F 17.6 °F 60% 30.21 in 10.0 mi East 5.8 mph - N/A   Clear
4:55 AM 30.2 °F 24.3 °F 15.8 °F 55% 30.22 in 10.0 mi East 5.8 mph - N/A   Clear
5:15 AM 30.2 °F 22.6 °F 17.6 °F 60% 30.22 in 10.0 mi ESE 8.1 mph - N/A   Clear
5:35 AM 30.2 °F 21.9 °F 17.6 °F 60% 30.22 in 10.0 mi ESE 9.2 mph - N/A   Clear
5:55 AM 30.2 °F 21.9 °F 17.6 °F 60% 30.21 in 10.0 mi ESE 9.2 mph - N/A   Clear
6:15 AM 30.2 °F 21.3 °F 17.6 °F 60% 30.21 in 10.0 mi ESE 10.4 mph - N/A   Clear
6:35 AM 30.2 °F 21.3 °F 17.6 °F 60% 30.21 in 10.0 mi ESE 10.4 mph - N/A   Clear
6:55 AM 30.2 °F 21.3 °F 17.6 °F 60% 30.22 in 10.0 mi ESE 10.4 mph - N/A   Clear
7:15 AM 30.2 °F 21.3 °F 19.4 °F 64% 30.22 in 10.0 mi ESE 10.4 mph - N/A   Scattered Clouds
7:35 AM 30.2 °F 21.3 °F 19.4 °F 64% 30.22 in 10.0 mi ESE 10.4 mph - N/A   Mostly Cloudy
7:55 AM 32.0 °F 24.2 °F 19.4 °F 60% 30.22 in 10.0 mi ESE 9.2 mph - N/A   Mostly Cloudy
8:15 AM 32.0 °F 22.5 °F 21.2 °F 64% 30.21 in 10.0 mi SE 12.7 mph - N/A   Scattered Clouds
8:35 AM 32.0 °F 23.6 °F 21.2 °F 64% 30.22 in 10.0 mi SE 10.4 mph 16.1 mph N/A   Mostly Cloudy
8:55 AM 33.8 °F 25.3 °F 23.0 °F 65% 30.21 in 10.0 mi SE 11.5 mph - N/A   Overcast
9:15 AM 33.8 °F 25.8 °F 23.0 °F 65% 30.21 in 10.0 mi SE 10.4 mph - N/A   Overcast
9:35 AM 35.6 °F 27.5 °F 23.0 °F 60% 30.21 in 10.0 mi SE 11.5 mph - N/A   Overcast
9:55 AM 37.4 °F 30.3 °F 23.0 °F 56% 30.21 in 10.0 mi SE 10.4 mph - N/A   Overcast
10:15 AM 41.0 °F 33.5 °F 24.8 °F 53% 30.20 in 10.0 mi SE 13.8 mph 17.3 mph N/A   Overcast
10:35 AM 41.0 °F 34.3 °F 23.0 °F 49% 30.20 in 10.0 mi SSE 11.5 mph - N/A   Overcast
10:55 AM 42.8 °F 36.6 °F 24.8 °F 49% 30.20 in 10.0 mi SSE 11.5 mph - N/A   Mostly Cloudy
11:15 AM 44.6 °F 38.4 °F 24.8 °F 46% 30.18 in 10.0 mi South 12.7 mph - N/A   Scattered Clouds
11:35 AM 44.6 °F 39.2 °F 24.8 °F 46% 30.19 in 10.0 mi SSE 10.4 mph 16.1 mph N/A   Scattered Clouds
11:55 AM 44.6 °F 40.2 °F 24.8 °F 46% 30.18 in 10.0 mi SSE 8.1 mph - N/A   Mostly Cloudy
12:15 PM 46.4 °F 42.4 °F 26.6 °F 46% 30.18 in 10.0 mi SSE 8.1 mph - N/A   Overcast
12:35 PM 46.4 °F 42.9 °F 26.6 °F 46% 30.16 in 10.0 mi SE 6.9 mph - N/A   Mostly Cloudy
12:55 PM 46.4 °F 43.5 °F 26.6 °F 46% 30.15 in 10.0 mi SSW 5.8 mph - N/A   Overcast
1:15 PM 48.2 °F - 24.8 °F 40% 30.15 in 10.0 mi WSW 8.1 mph - N/A   Overcast
1:35 PM 48.2 °F - 26.6 °F 43% 30.14 in 10.0 mi West 4.6 mph - N/A   Overcast
1:55 PM 48.2 °F - 26.6 °F 43% 30.14 in 10.0 mi WSW 9.2 mph - N/A   Overcast
2:15 PM 48.2 °F - 26.6 °F 43% 30.13 in 10.0 mi SW 10.4 mph - N/A   Overcast
2:35 PM 46.4 °F 41.5 °F 28.4 °F 50% 30.12 in 10.0 mi SW 10.4 mph - N/A   Overcast
2:55 PM 46.4 °F 41.9 °F 28.4 °F 50% 30.12 in 10.0 mi WSW 9.2 mph - N/A   Overcast
3:15 PM 46.4 °F 41.5 °F 30.2 °F 53% 30.11 in 10.0 mi NNW 10.4 mph 17.3 mph N/A   Overcast
3:35 PM 46.4 °F 40.7 °F 30.2 °F 53% 30.11 in 10.0 mi NNW 12.7 mph - N/A   Overcast
3:55 PM 46.4 °F 41.5 °F 32.0 °F 57% 30.11 in 10.0 mi NNW 10.4 mph - N/A   Overcast
4:15 PM 46.4 °F 41.5 °F 32.0 °F 57% 30.11 in 10.0 mi NNW 10.4 mph - N/A   Overcast
4:35 PM 44.6 °F 39.7 °F 32.0 °F 61% 30.11 in 10.0 mi North 9.2 mph - N/A   Overcast
4:55 PM 44.6 °F 39.2 °F 32.0 °F 61% 30.11 in 10.0 mi NW 10.4 mph - N/A Rain Light Rain
5:15 PM 42.8 °F 41.1 °F 32.0 °F 66% 30.12 in 10.0 mi NW 3.5 mph - N/A Rain Rain
5:35 PM 42.8 °F 36.6 °F 32.0 °F 66% 30.13 in 10.0 mi NNW 11.5 mph - N/A   Drizzle
5:55 PM 42.8 °F 36.6 °F 32.0 °F 66% 30.14 in 10.0 mi NNW 11.5 mph 17.3 mph N/A Rain Light Rain
6:15 PM 41.0 °F 34.7 °F 32.0 °F 70% 30.15 in 10.0 mi North 10.4 mph 16.1 mph N/A Rain Light Rain
6:35 PM 37.4 °F 28.9 °F 33.8 °F 87% 30.16 in 10.0 mi NNW 13.8 mph 19.6 mph N/A Rain Light Rain
6:55 PM 35.6 °F 27.1 °F 33.8 °F 93% 30.17 in 10.0 mi NNW 12.7 mph 18.4 mph N/A Rain Rain
7:15 PM 35.6 °F 27.1 °F 33.8 °F 93% 30.17 in 7.0 mi NNW 12.7 mph 18.4 mph N/A Rain Light Rain
7:35 PM 33.8 °F 24.8 °F 33.8 °F 100% 30.18 in 10.0 mi North 12.7 mph - N/A Rain Light Rain
7:55 PM 33.8 °F 27.7 °F 33.8 °F 100% 30.18 in 7.0 mi NNW 6.9 mph - N/A Rain Light Rain
8:15 PM 33.8 °F 26.4 °F 33.8 °F 100% 30.19 in 7.0 mi NNW 9.2 mph - N/A   Overcast
8:35 PM 33.8 °F 26.4 °F 33.8 °F 100% 30.20 in 7.0 mi North 9.2 mph - N/A   Overcast
8:55 PM 33.8 °F 26.4 °F 32.0 °F 93% 30.20 in 10.0 mi NNW 9.2 mph - N/A   Overcast
9:15 PM 33.8 °F 27.0 °F 32.0 °F 93% 30.20 in 7.0 mi NNW 8.1 mph - N/A   Overcast
9:35 PM 33.8 °F 27.0 °F 32.0 °F 93% 30.20 in 7.0 mi NNW 8.1 mph - N/A   Overcast
9:55 PM 33.8 °F 25.8 °F 32.0 °F 93% 30.21 in 10.0 mi NNW 10.4 mph - N/A   Overcast
10:15 PM 33.8 °F 24.8 °F 32.0 °F 93% 30.21 in 10.0 mi NNW 12.7 mph - N/A   Overcast
10:35 PM 32.0 °F 23.0 °F 32.0 °F 100% 30.21 in 10.0 mi NNW 11.5 mph - N/A   Overcast
10:55 PM 32.0 °F 22.5 °F 32.0 °F 100% 30.23 in 7.0 mi NNW 12.7 mph - N/A   Overcast
11:15 PM 32.0 °F 25.6 °F 32.0 °F 100% 30.22 in 7.0 mi NNW 6.9 mph - N/A   Overcast
11:35 PM 32.0 °F 24.8 °F 32.0 °F 100% 30.23 in 5.0 mi NNW 8.1 mph - N/A   Overcast
11:55 PM 32.0 °F 24.8 °F 30.2 °F 93% 30.23 in 7.0 mi NNW 8.1 mph - N/A   Overcast